GFSNIL_con_lsi_117.txt.gz
Lid_Strength_Index
4 2 3 2 2 2 2 1 1 1 2 2 2 2 1 1 2 2 2 2 2 2
3 2 2 2 1 2 1 1 1 1 2 3 2 2 1 1 2 2 2 2 2 2
5 3 1 2 2 2 1 2 2 1 2 3 2 1 1 2 1 2 2 2 3 3
7 4 1 2 2 2 2 2 2 2 2 2 1 1 1 2 2 2 2 2 3 3
8 2 2 2 2 1 2 2 3 3 2 2 2 1 2 2 3 3 3 3 3 2
8 2 2 2 2 2 2 2 2 2 2 2 2 2 2 2 2 2 3 3 3 3
8 2 2 2 3 2 2 2 2 3 2 2 2 2 2 2 2 3 2 2 2 3
8 3 2 2 2 2 2 3 3 2 2 2 2 2 3 3 2 3 3 3 2 2
7 2 2 2 2 3 3 3 3 3 2 2 2 8 7 4 3 3 3 3 3 4
11 2 2 2 2 2 3 3 4 3 3 2 2 9 8 8 3 3 4 4 4 5
12 8 2 2 2 3 3 3 3 4 2 3 7 10 8 8 2 3 3 3 3 4
13 12 3 3 3 3 3 3 6 5 6 8 11 12 9 6 3 4 5 6 8 4
14 13 12 5 3 3 7 11 12 14 14 13 12 13 10 6 4 9 12 13 13 13
15 14 14 12 8 10 13 14 16 17 16 16 15 14 10 9 7 11 14 14 15 14

GFSNIL_con_lsi_120.txt.gz
Lid_Strength_Index
6 6 4 2 2 3 2 2 2 1 1 2 2 2 2 2 2 2 1 2 2 2
8 8 6 4 1 2 2 2 1 1 1 2 3 2 2 3 3 3 1 1 2 2
9 8 8 5 3 1 2 2 1 1 1 1 2 3 3 3 3 3 1 2 2 2
10 9 8 7 5 1 1 1 2 1 2 2 3 3 3 3 3 2 2 2 2 2
10 10 7 6 3 1 1 2 1 1 2 3 2 3 3 3 3 2 3 3 2 3
10 9 8 8 2 1 2 2 1 2 3 3 3 3 3 2 2 2 2 2 3 2
10 9 9 8 4 2 1 1 2 2 3 3 4 3 2 2 2 2 2 3 2 2
10 9 8 6 3 1 2 1 1 2 3 3 4 3 3 2 2 2 3 2 2 2
10 10 9 8 3 2 2 2 2 3 3 4 4 9 7 4 2 3 3 3 3 2
12 11 11 10 2 2 2 2 2 3 3 4 4 9 8 8 3 3 3 3 4 4
12 12 11 11 7 2 2 2 3 3 4 4 6 10 10 9 4 4 3 3 3 4
14 13 12 12 11 2 2 3 3 4 5 7 9 11 10 7 5 5 6 7 9 4
14 14 14 14 13 2 4 8 11 14 12 12 12 12 11 7 6 11 11 12 12 13
15 15 14 14 14 11 12 13 15 16 16 15 15 13 11 10 8 13 14 14 14 14

GFSNIL_con_lsi_123.txt.gz
Lid_Strength_Index
8 7 7 5 3 2 2 2 2 2 2 2 2 3 3 2 2 2 3 3 2 2
9 9 9 8 6 5 1 1 2 2 2 2 2 1 2 3 3 3 3 3 2 2
10 10 9 9 8 6 4 1 2 2 2 2 1 1 2 3 3 3 3 3 3 3
11 10 10 9 8 7 6 4 1 2 2 1 1 2 2 2 3 3 3 3 3 3
11 11 10 10 9 7 6 3 1 1 2 1 2 2 3 3 3 3 4 4 4 2
11 11 11 11 10 8 7 2 1 1 2 2 2 2 3 3 3 3 4 4 3 2
11 12 12 11 10 8 6 2 1 1 1 2 1 2 2 3 3 3 4 3 2 2
12 12 11 11 10 8 6 2 1 2 1 1 2 2 3 4 3 4 3 3 2 2
12 11 12 11 10 8 7 3 2 2 2 2 2 8 9 6 4 3 3 3 3 2
13 12 11 11 10 9 9 3 2 2 2 2 2 10 10 9 3 3 3 3 3 4
14 13 13 12 11 10 9 5 2 2 2 2 4 10 10 10 3 3 3 3 3 4
14 14 13 12 12 11 11 7 2 2 2 3 6 11 11 8 4 4 6 5 5 4
15 15 14 14 13 12 11 6 9 12 9 9 9 11 11 7 6 10 11 13 13 14
15 15 15 14 13 14 14 13 14 14 14 14 13 12 11 10 8 11 13 14 15 15

GFSNIL_con_lsi_129.txt.gz
Lid_Strength_Index
10 9 9 7 6 2 1 1 0 0 0 0 0 0 1 1 1 1 1 1 1 1
9 9 9 9 8 6 6 5 4 1 1 1 1 1 1 2 2 1 1 1 1 1
10 10 9 8 8 7 7 7 6 5 4 1 1 1 2 2 2 2 1 1 1 1
11 10 10 10 10 9 8 7 6 5 4 3 1 1 1 1 2 2 2 1 1 1
11 11 11 10 10 9 8 7 7 6 5 3 2 1 1 2 2 3 3 2 2 2
12 13 12 11 10 10 9 8 7 6 5 4 2 1 1 1 1 2 3 2 2 2
13 13 12 11 11 11 10 10 8 7 6 4 3 1 1 1 1 2 2 2 2 2
13 13 13 12 12 11 10 10 8 7 6 5 3 2 1 1 1 2 2 2 2 1
13 13 13 12 11 11 11 11 10 8 7 6 4 5 7 4 2 2 2 3 3 2
14 14 13 13 12 12 12 11 11 10 8 7 5 7 8 9 1 2 2 2 2 3
15 14 14 13 13 12 12 12 11 10 9 8 6 8 9 10 2 2 1 2 2 3
15 15 14 14 14 13 12 12 12 10 10 9 8 8 9 9 4 2 2 2 3 3
15 15 15 15 14 13 13 13 12 12 12 12 13 13 13 9 3 4 5 6 5 9
15 15 15 15 14 14 14 14 14 14 13 14 14 14 13 12 4 5 9 9 10 11

GFSNIL_con_lsi_132.txt.gz
Lid_Strength_Index
7 5 5 4 2 1 1 1 -0 0 0 -0 1 -0 0 0 1 1 1 1 1 1
8 8 7 7 5 2 1 1 0 0 0 -0 -0 0 0 1 1 1 1 1 1 1
9 8 7 7 6 6 4 4 3 2 0 2 0 0 1 1 1 1 1 1 1 1
9 8 8 8 7 7 6 6 6 4 3 3 1 0 1 1 1 1 2 1 2 1
9 9 9 8 8 8 6 5 6 5 4 4 3 2 1 1 1 2 2 2 2 2
10 9 9 9 10 9 8 8 6 5 5 4 3 2 1 0 1 1 1 1 2 2
11 12 11 11 11 9 8 8 7 6 6 5 4 3 2 1 1 1 1 1 1 1
13 12 11 10 10 9 9 9 8 8 6 5 5 4 2 2 1 1 1 1 1 1
13 13 13 12 11 10 9 9 9 9 8 6 6 8 9 7 3 1 1 2 1 1
14 13 13 12 11 11 10 9 9 9 9 8 7 9 9 10 6 4 2 1 2 2
13 13 13 13 12 12 11 10 10 10 10 9 9 11 12 12 9 5 1 1 1 2
14 13 12 13 13 12 12 11 11 11 11 11 11 12 12 12 9 5 2 1 1 1
12 13 13 13 13 13 12 11 11 12 12 12 13 13 12 12 10 7 3 5 2 9
13 13 13 13 13 13 13 12 12 12 13 13 14 13 13 13 14 10 9 8 7 7